| time (UTC) | temp F | wind direction | speed knots | gust knots | rain 1hr in | rain 24hr in | rain mn in | humidity % | barometer mb |
| 20260504160145 | 68 | 222 | 3.5 | 5.2 | 0.00 | 0.00 | 0.00 | 27 | 757.5 |
| 20260504141202 | 62 | 213 | 2.6 | 5.2 | 0.00 | 0.00 | 0.00 | 33 | 757.5 |
| 20260504140201 | 62 | 207 | 2.6 | 5.2 | 0.00 | 0.00 | 0.00 | 34 | 757.5 |
| 20260504081523 | 41 | 0 | 0.0 | 0.0 | 0.00 | 0.00 | 0.00 | 59 | 757.5 |
| 20260504080523 | 41 | 0 | 0.0 | 0.0 | 0.00 | 0.00 | 0.00 | 59 | 757.5 |
| 20260504070137 | 44 | 0 | 0.0 | 0.0 | 0.00 | 0.00 | 0.00 | 56 | 757.5 |
| 20260504045833 | 48 | 0 | 0.0 | 1.7 | 0.00 | 0.00 | 0.00 | 41 | 757.5 |
| 20260504044833 | 48 | 0 | 0.0 | 1.7 | 0.00 | 0.00 | 0.00 | 40 | 757.5 |
| 20260504043833 | 49 | 0 | 0.0 | 0.9 | 0.00 | 0.00 | 0.00 | 40 | 757.5 |
| 20260504042833 | 49 | 0 | 0.0 | 0.9 | 0.00 | 0.00 | 0.00 | 40 | 757.5 |
| 20260504041833 | 50 | 0 | 0.0 | 0.9 | 0.00 | 0.00 | 0.00 | 39 | 757.5 |
| 20260504040833 | 50 | 0 | 0.0 | 1.7 | 0.00 | 0.00 | 0.00 | 39 | 757.5 |
| 20260504035213 | 50 | 217 | 1.7 | 2.6 | 0.00 | 0.00 | 0.00 | 38 | 757.5 |
| 20260504034212 | 50 | 218 | 1.7 | 3.5 | 0.00 | 0.00 | 0.00 | 39 | 757.5 |
| 20260504033212 | 50 | 0 | 0.0 | 1.7 | 0.00 | 0.00 | 0.00 | 40 | 757.5 |
| 20260504031559 | 51 | 217 | 0.9 | 2.6 | 0.00 | 0.00 | 0.00 | 38 | 757.5 |
| 20260504030600 | 51 | 0 | 0.0 | 0.9 | 0.00 | 0.00 | 0.00 | 38 | 757.5 |
| 20260504025559 | 51 | 218 | 0.9 | 2.6 | 0.00 | 0.00 | 0.00 | 37 | 757.5 |
| 20260504023944 | 51 | 0 | 0.0 | 0.0 | 0.00 | 0.00 | 0.00 | 38 | 757.5 |
| 20260504022944 | 51 | 0 | 0.0 | 0.0 | 0.00 | 0.00 | 0.00 | 38 | 757.5 |
| 20260504021945 | 51 | 0 | 0.0 | 0.0 | 0.00 | 0.00 | 0.00 | 37 | 757.5 |
| 20260504020325 | 52 | 0 | 0.0 | 0.0 | 0.00 | 0.00 | 0.00 | 36 | 757.5 |
| 20260504015325 | 53 | 0 | 0.0 | 0.0 | 0.00 | 0.00 | 0.00 | 35 | 757.5 |
| 20260504014325 | 54 | 0 | 0.0 | 0.0 | 0.00 | 0.00 | 0.00 | 33 | 757.5 |
| 20260504012727 | 54 | 0 | 0.0 | 0.0 | 0.00 | 0.00 | 0.00 | 31 | 757.5 |
| 20260504011727 | 55 | 0 | 0.0 | 0.0 | 0.00 | 0.00 | 0.00 | 33 | 757.5 |
| 20260504010726 | 55 | 218 | 0.9 | 2.6 | 0.00 | 0.00 | 0.00 | 31 | 757.5 |
| 20260504005112 | 55 | 218 | 1.7 | 2.6 | 0.00 | 0.00 | 0.00 | 29 | 757.5 |
| 20260504004112 | 56 | 217 | 0.9 | 2.6 | 0.00 | 0.00 | 0.00 | 28 | 757.5 |
| 20260504003112 | 56 | 217 | 0.9 | 2.6 | 0.00 | 0.00 | 0.00 | 28 | 757.5 |
| 20260504001447 | 57 | 217 | 0.9 | 1.7 | 0.00 | 0.00 | 0.00 | 28 | 757.5 |
| 20260504000446 | 57 | 217 | 1.7 | 2.6 | 0.00 | 0.00 | 0.00 | 26 | 757.5 |
| 20260503235447 | 58 | 218 | 0.9 | 2.6 | 0.00 | 0.00 | 0.00 | 26 | 757.5 |
| 20260503233834 | 59 | 217 | 0.9 | 2.6 | 0.00 | 0.00 | 0.00 | 25 | 757.5 |
| 20260503232834 | 59 | 238 | 1.7 | 3.5 | 0.00 | 0.00 | 0.00 | 24 | 757.5 |
| 20260503231834 | 59 | 232 | 1.7 | 4.3 | 0.00 | 0.00 | 0.00 | 23 | 757.5 |
| 20260503230223 | 60 | 218 | 0.9 | 3.5 | 0.00 | 0.00 | 0.00 | 23 | 757.5 |
| 20260503225223 | 60 | 212 | 1.7 | 4.3 | 0.00 | 0.00 | 0.00 | 23 | 757.5 |
| 20260503224223 | 60 | 210 | 0.9 | 3.5 | 0.00 | 0.00 | 0.00 | 23 | 757.5 |
| 20260503222610 | 60 | 290 | 0.9 | 2.6 | 0.00 | 0.00 | 0.00 | 21 | 757.5 |
| 20260503221610 | 60 | 233 | 2.6 | 4.3 | 0.00 | 0.00 | 0.00 | 21 | 757.5 |
| 20260503220610 | 60 | 278 | 1.7 | 5.2 | 0.00 | 0.00 | 0.00 | 22 | 757.5 |
| 20260503214947 | 60 | 300 | 2.6 | 7.0 | 0.00 | 0.00 | 0.00 | 21 | 757.5 |
| 20260503213947 | 60 | 227 | 1.7 | 4.3 | 0.00 | 0.00 | 0.00 | 22 | 757.5 |
| 20260503212947 | 60 | 317 | 1.7 | 12.2 | 0.00 | 0.00 | 0.00 | 23 | 757.5 |
| 20260503211325 | 60 | 214 | 2.6 | 10.4 | 0.00 | 0.00 | 0.00 | 19 | 757.5 |
| 20260503210324 | 60 | 239 | 1.7 | 6.1 | 0.00 | 0.00 | 0.00 | 19 | 757.5 |
| 20260503205324 | 60 | 267 | 2.6 | 7.8 | 0.00 | 0.00 | 0.00 | 20 | 757.5 |
| 20260503203705 | 60 | 223 | 1.7 | 6.1 | 0.00 | 0.00 | 0.00 | 19 | 757.5 |
| 20260503202706 | 60 | 266 | 1.7 | 7.0 | 0.00 | 0.00 | 0.00 | 20 | 757.5 |
| 20260503201706 | 59 | 238 | 2.6 | 7.8 | 0.00 | 0.00 | 0.00 | 20 | 757.5 |
| 20260503200038 | 59 | 262 | 3.5 | 7.0 | 0.00 | 0.00 | 0.00 | 21 | 757.5 |
| 20260503195038 | 59 | 284 | 3.5 | 9.6 | 0.00 | 0.00 | 0.00 | 21 | 757.5 |
| 20260503194038 | 58 | 297 | 1.7 | 9.6 | 0.00 | 0.00 | 0.00 | 22 | 757.5 |
| 20260503192422 | 57 | 300 | 6.1 | 9.6 | 0.00 | 0.00 | 0.00 | 22 | 757.5 |
| 20260503191422 | 57 | 246 | 3.5 | 13.9 | 0.00 | 0.00 | 0.00 | 24 | 757.5 |
| 20260503190421 | 58 | 295 | 3.5 | 7.8 | 0.00 | 0.00 | 0.00 | 24 | 757.5 |
| 20260503184732 | 58 | 286 | 1.7 | 11.3 | 0.00 | 0.00 | 0.00 | 24 | 757.5 |
| 20260503183732 | 58 | 257 | 3.5 | 15.6 | 0.00 | 0.00 | 0.00 | 22 | 757.5 |
| 20260503182733 | 57 | 298 | 1.7 | 12.2 | 0.00 | 0.00 | 0.00 | 23 | 757.5 |
| 20260503181026 | 57 | 259 | 4.3 | 18.2 | 0.00 | 0.00 | 0.00 | 22 | 757.5 |
| 20260503180025 | 56 | 334 | 5.2 | 8.7 | 0.00 | 0.00 | 0.00 | 25 | 757.5 |
| 20260503175025 | 56 | 268 | 3.5 | 16.5 | 0.00 | 0.00 | 0.00 | 23 | 757.5 |
| 20260503173309 | 57 | 253 | 1.7 | 7.8 | 0.00 | 0.00 | 0.00 | 23 | 757.5 |
| 20260503172309 | 56 | 306 | 0.9 | 8.7 | 0.00 | 0.00 | 0.00 | 24 | 757.5 |
| 20260503171309 | 56 | 304 | 4.3 | 9.6 | 0.00 | 0.00 | 0.00 | 26 | 757.5 |